Bloomington, IL

7:42 PM CDT on June 21, 2018 (GMT -0500)
Central Ill Regional

Weather History for KBMI - June, 2018

Change the Weather History Date:

Thursday, June 14, 2018

  Actual Average Record
Temperature  
Mean Temperature 71 °F -  
Max Temperature 80 °F 86 °F 93 °F (1976)
Min Temperature 62 °F 58 °F 47 °F (1978)
Cooling Degree Days 6    
Growing Degree Days 21 (Base 50)    
Moisture  
Dew Point 57 °F    
Average Humidity 63    
Maximum Humidity 84    
Minimum Humidity 43    
Precipitation  
Precipitation 0.00 in - - ()
Sea Level Pressure  
Sea Level Pressure 30.09 in    
Wind  
Wind Speed 6 mph (SE)    
Max Wind Speed 15 mph    
Max Gust Speed -    
Visibility 10 miles    
Events      
Averages and records for this station are not official NWS values.
T = Trace of Precipitation, MM = Missing Value Source: NWS Daily Summary

Daily Weather History Graph

Daily Weather History Graph

Search for Another Location

Airport or City:

Astronomy

Jun. 14, 2018 Rise Set
Actual Time 5:24 AM CDT 8:27 PM CDT
Civil Twilight 4:51 AM CDT 9:00 PM CDT
Nautical Twilight 4:09 AM CDT 9:42 PM CDT
Astronomical Twilight 3:19 AM CDT 10:32 PM CDT
Moon 6:22 AM CDT (6/14) 9:27 PM CDT (6/14)
Length of Visible Light 16h 09m
Length of Day
15h 02m
New Moon, 1% of the Moon is Illuminated
Jun 14
New Moon
Jun 20
First Quarter
Jun 27
Full
Jul 6
Last Quarter
Jul 12
New

Hourly Weather History & Observations

Time (CDT) Temp. Heat Index Dew Point Humidity Pressure Visibility Wind Dir Wind Speed Gust Speed Precip Events Conditions
12:56 AM 66.0 °F - 55.0 °F 68% 30.11 in 10.0 mi North 5.8 mph - N/A   Clear
1:56 AM 63.0 °F - 55.0 °F 75% 30.10 in 10.0 mi Calm Calm - N/A   Clear
2:56 AM 63.0 °F - 55.9 °F 78% 30.10 in 10.0 mi East 3.5 mph - N/A   Clear
3:56 AM 63.0 °F - 57.0 °F 81% 30.13 in 10.0 mi Calm Calm - N/A   Clear
4:56 AM 63.0 °F - 55.0 °F 75% 30.12 in 10.0 mi Calm Calm - N/A   Clear
5:56 AM 62.1 °F - 57.0 °F 84% 30.13 in 10.0 mi Calm Calm - N/A   Clear
6:56 AM 66.0 °F - 57.9 °F 75% 30.13 in 10.0 mi SSE 5.8 mph - N/A   Clear
7:56 AM 69.1 °F - 54.0 °F 58% 30.13 in 10.0 mi SE 9.2 mph - N/A   Clear
8:56 AM 73.0 °F - 54.0 °F 51% 30.14 in 10.0 mi SE 11.5 mph - N/A   Clear
9:56 AM 75.0 °F - 55.0 °F 50% 30.15 in 10.0 mi South 10.4 mph - N/A   Clear
10:56 AM 77.0 °F - 55.0 °F 47% 30.14 in 10.0 mi SSE 8.1 mph - N/A   Clear
11:56 AM 78.1 °F - 54.0 °F 43% 30.14 in 10.0 mi SSE 9.2 mph - N/A   Clear
12:56 PM 80.1 °F 80.2 °F 55.9 °F 43% 30.12 in 10.0 mi SSE 13.8 mph - N/A   Clear
1:56 PM 79.0 °F - 55.0 °F 44% 30.12 in 10.0 mi SSE 11.5 mph - N/A   Clear
2:56 PM 78.1 °F - 55.9 °F 46% 30.15 in 10.0 mi SSE 5.8 mph - N/A   Clear
3:56 PM 78.1 °F - 57.9 °F 50% 30.14 in 10.0 mi WSW 6.9 mph - N/A   Clear
4:56 PM 75.9 °F - 61.0 °F 60% 30.02 in 10.0 mi SE 15.0 mph - N/A   Clear
5:56 PM 75.9 °F - 57.9 °F 54% 29.99 in 10.0 mi SE 13.8 mph - N/A   Clear
6:56 PM 75.0 °F - 57.9 °F 55% 30.00 in 10.0 mi SE 13.8 mph - N/A   Clear
7:56 PM 73.0 °F - 57.9 °F 59% 30.03 in 10.0 mi East 5.8 mph - N/A   Clear
8:56 PM 70.0 °F - 59.0 °F 68% 30.04 in 10.0 mi East 6.9 mph - N/A   Partly Cloudy
9:56 PM 66.0 °F - 60.1 °F 81% 30.06 in 10.0 mi ESE 6.9 mph - N/A   Clear
10:03 PM 66.2 °F - 60.8 °F 83% 30.01 in 10.0 mi ESE 8.1 mph - N/A   Partly Cloudy
10:56 PM 66.9 °F - 60.1 °F 79% 30.04 in 10.0 mi ESE 9.2 mph - N/A   Partly Cloudy
11:56 PM 69.1 °F - 59.0 °F 70% 30.05 in 10.0 mi SE 8.1 mph - N/A   Clear